This is the latest recevied weather packets stored in our database for station/object W6SNO-1. If no packets are shown the sender has not sent any weather packets the latest 1 day(s).
| Time | Temp. | Humidity | Pressure | Rain* | Wind** | Luminosity | Snow |
|---|---|---|---|---|---|---|---|
| 1778026448 | 15.56° C | 73% | 1015.8 hPa | 0 mm | 0 m/s | 100 W/m² | - |
| 1778026145 | 16.11° C | 72% | 1015.6 hPa | 0 mm | 0 m/s | 102 W/m² | - |
| 1778025843 | 16.11° C | 71% | 1015.7 hPa | 0 mm | 0 m/s | 108 W/m² | - |
| 1778025539 | 15.56° C | 73% | 1015.5 hPa | 0 mm | 0 m/s | 111 W/m² | - |
| 1778025238 | 16.11° C | 73% | 1015.6 hPa | 0 mm | 0 m/s | 113 W/m² | - |
| 1778024934 | 16.11° C | 72% | 1015.8 hPa | 0 mm | 0.89 m/s, 252° | 103 W/m² | - |
| 1778024632 | 15.56° C | 73% | 1015.6 hPa | 0 mm | 0.45 m/s, 335° | 101 W/m² | - |
| 1778024328 | 15.56° C | 73% | 1015.6 hPa | 0 mm | 0 m/s | 99 W/m² | - |
| 1778024026 | 15.56° C | 73% | 1015.8 hPa | 0 mm | 0.45 m/s, 321° | 108 W/m² | - |
| 1778023724 | 15.56° C | 73% | 1015.8 hPa | 0 mm | 0 m/s | 112 W/m² | - |
| 1778023421 | 16.11° C | 72% | 1015.6 hPa | 0 mm | 0.45 m/s, 310° | 142 W/m² | - |
| 1778023118 | 15.56° C | 72% | 1015.8 hPa | 0 mm | 0.89 m/s, 345° | 139 W/m² | - |
| 1778022815 | 16.11° C | 72% | 1015.7 hPa | 0 mm | 0.45 m/s, 352° | 127 W/m² | - |
| 1778022513 | 16.11° C | 70% | 1015.6 hPa | 0 mm | 0.45 m/s, 223° | 161 W/m² | - |
| 1778022210 | 16.11° C | 71% | 1015.9 hPa | 0 mm | 0 m/s | 175 W/m² | - |
| 1778021907 | 16.11° C | 72% | 1015.8 hPa | 0 mm | 0.45 m/s, 338° | 199 W/m² | - |
| 1778021604 | 16.11° C | 71% | 1015.5 hPa | 0 mm | 0.45 m/s, 325° | 165 W/m² | - |
| 1778021299 | 16.11° C | 70% | 1015.6 hPa | 0 mm | 0 m/s | 172 W/m² | - |
| 1778020997 | 16.11° C | 71% | 1015.7 hPa | 0 mm | 0.45 m/s, 351° | 174 W/m² | - |
| 1778020694 | 16.11° C | 71% | 1016 hPa | 0 mm | 0.45 m/s, 322° | 203 W/m² | - |
| 1778020391 | 16.11° C | 70% | 1015.8 hPa | 0 mm | 0.45 m/s, 89° | 175 W/m² | - |
| 1778020087 | 16.67° C | 71% | 1016 hPa | 0 mm | 0 m/s | 214 W/m² | - |
| 1778019783 | 16.67° C | 69% | 1016 hPa | 0 mm | 0.45 m/s, 290° | 205 W/m² | - |
| 1778019480 | 16.67° C | 69% | 1015.9 hPa | 0 mm | 0.45 m/s, 330° | 250 W/m² | - |
| 1778019177 | 16.11° C | 71% | 1015.9 hPa | 0 mm | 0 m/s | 295 W/m² | - |
* Rain latest hour (hover to see other rain measurements)
** Current wind speed in m/s (hover to see current wind gust speed)